Location: Shandelee
(41.8790°N, 74.8713°W)
Time: 04:34:03
(UTC+00:00)

Cosmos 2058 Rocket - Pass Details

Date: 29 October 2020
Orbit: 610 x 639 km, 82.5° (Epoch: 23 November)

Event Time Altitude Azimuth Distance (km) Brightness Sun altitude
Rises 23:07:41 0° 197° (SSW) 2,914 6.8 -13.7°
Reaches altitude 10° 23:09:56 10° 202° (SSW) 2,014 6.1 -14.1°
Maximum altitude 23:14:20 56° 281° (W) 765 3.9 -14.9°
Drops below altitude 10° 23:18:47 10° 359° (N) 2,039 5.7 -15.8°
Sets 23:21:05 0° 4° (N) 2,953 6.5 -16.2°
